Regional Weather Roundup
Issued by NWS

Home | Current Version | Previous Version | Graphics & Text | Print | Product List | Glossary On
Versions: 1 2 3 4 5 6 7 8 9 10 11 12 13 14 15 16 17 18 19 20 21 22 23 24 25 26 27 28 29 30 31 32 33 34 35 36 37 38 39 40 41 42 43 44 45 46 47 48 49 50
000
ASUS45 KPSR 050310
RWRAZ

ARIZONA REGIONAL HOURLY WEATHER ROUNDUP
NATIONAL WEATHER SERVICE PHOENIX AZ
800 PM MST WED MAR 04 2015

NOTE: FAIR INDICATES FEW OR NO CLOUDS BELOW 12,000 FEET WITH NO
SIGNIFICANT WEATHER AND/OR OBSTRUCTIONS TO VISIBILITY.

AZZ001>003-036-050400-
NORTHWEST ARIZONA

CITY           SKY/WX    TMP DP  RH WIND       PRES   REMARKS
KINGMAN        CLEAR     45  24  43 NE9G20    30.19R
$$

AZZ004>008-015-016-018-050400-
NORTH CENTRAL ARIZONA

CITY           SKY/WX    TMP DP  RH WIND       PRES   REMARKS
GRAND CANYON   CLEAR     20  16  84 CALM      30.22R
PRESCOTT       CLEAR     43  19  38 CALM      30.16R
FLAGSTAFF      NOT AVBL
PAYSON         CLEAR     43  18  36 N8        30.18R
PAGE           CLEAR     40  19  43 S7        30.21R
$$

AZZ009>014-017-050400-
NORTHEAST ARIZONA

CITY           SKY/WX    TMP DP  RH WIND       PRES   REMARKS
WINSLOW        NOT AVBL
SAINT JOHNS    CLEAR     37  19  48 NW8       30.15R WCI  31
WINDOW ROCK    CLEAR     31  13  47 N12       30.18R WCI  22
$$

AZZ023-050400-
GREATER PHOENIX AREA

CITY           SKY/WX    TMP DP  RH WIND       PRES   REMARKS
PHOENIX        CLEAR     64  34  32 W10       30.06R
BUCKEYE        CLEAR     55  39  54 SW5       30.10R
GLENDALE       CLEAR     63  34  34 S6        30.09R
LUKE AFB       CLEAR     59  39  48 SW5       30.07R
DEER VALLEY    CLEAR     59  33  37 NW5       30.07R
SCOTTSDALE     CLEAR     62  33  33 CALM      30.09R
MESA-FALCON    CLEAR     59  34  38 W7        30.07R
MESA-GATEWAY   CLEAR     61  36  39 W8        30.09R
CHANDLER       CLEAR     61  34  36 W9        30.08R
$$

AZZ027-028-050400-
SOUTHWEST MARICOPA COUNTY AND PINAL COUNTY

CITY           SKY/WX    TMP DP  RH WIND       PRES   REMARKS
CASA GRANDE    CLEAR     57  36  44 W7        30.09R
GILA BEND      CLEAR     58  37  46 W5        30.09R
$$

AZZ503-504-507>509-050400-
SOUTHEAST ARIZONA

CITY           SKY/WX    TMP DP  RH WIND       PRES   REMARKS
TUCSON         CLEAR     56  32  40 NW5       30.12R
DAVIS-MONTHAN  CLEAR     54  33  44 NW7       30.10R
RYAN FIELD       N/A     54  36  50 NW5       30.12R
NOGALES        CLEAR     49  29  46 NE5       30.11R
SIERRA VISTA   PTCLDY    45  30  57 W9        30.13R
DOUGLAS        PTCLDY    45  38  76 E6        30.11R
SAFFORD        CLEAR     54  29  38 W16       30.06R
$$

AZZ020-021-025-026-031-050400-
SOUTHWEST ARIZONA

CITY           SKY/WX    TMP DP  RH WIND       PRES   REMARKS
YUMA           CLEAR     62  27  26 N3        30.11R
$$

CAZ031-033-041-043-047-048-061-050400-
SOUTHERN CALIFORNIA

CITY           SKY/WX    TMP DP  RH WIND       PRES   REMARKS
DOWNTOWN L.A.  CLEAR     61  45  55 W3        30.10R
L.A. AIRPORT   PTCLDY    60  50  69 W12       30.11R
SAN DIEGO      PTCLDY    62  50  64 CALM      30.12R
BURBANK        CLEAR     62  31  31 VRB3      30.10R
ONTARIO        PTCLDY    63  34  33 W8        30.10R
RIVERSIDE      PTCLDY    65  24  21 VRB5      30.11R
PALM SPRINGS   PTCLDY    66  17  15 W5        30.13R
EL CENTRO NAS  PTCLDY    62  30  29 S5        30.11R
IMPERIAL       CLEAR     58  35  42 SW5       30.10R
BLYTHE         CLEAR     61  31  32 VRB3      30.11R
$$

NVZ020-UTZ003-050400-
SOUTHERN NEVADA-UTAH

CITY           SKY/WX    TMP DP  RH WIND       PRES   REMARKS
LAS VEGAS      NOT AVBL
SALT LAKE CITY CLEAR     33  21  61 VRB3      30.29R
$$

NMZ009-TXZ055-050400-
NEW MEXICO-WEST TEXAS

CITY           SKY/WX    TMP DP  RH WIND       PRES   REMARKS
ALBUQUERQUE    PTCLDY    40  14  34 N18G26    30.13R WCI  31
EL PASO        PTCLDY    51  33  50 E9        30.06R
$$


........................KEY........................
SKY/WX - SKY CONDITION/WEATHER
TMP    - TEMPERATURE IN FAHRENHEIT
DP     - DEW POINT IN FAHRENHEIT
RH     - RELATIVE HUMIDITY IN PERCENT
WIND   - DIRECTION AND SPEED IN MILES PER HOUR (MPH)
VRB    - VARIABLE WIND DIRECTION
PRES   - MEAN SEA LEVEL PRESSURE IN INCHES OF MERCURY
         F - FALLING PRESSURE   R - RISING PRESSURE
         S - STEADY PRESSURE
VSB    - VISIBILITY IN MILES
HX     - HEAT INDEX IN FAHRENHEIT
WCI    - WIND CHILL INDEX IN FAHRENHEIT
TC     - TEMPERATURE IN CELSIUS WHICH IS ALSO KNOWN AS
         TEMPERATURE IN CENTIGRADE
AFB    - AIR FORCE BASE
         LUKE AFB IS LUKE AIR FORCE BASE
         DAVIS-MONTHAN IS DAVIS-MONTHAN AIR FORCE BASE
NAS    - NAVAL AIR STATION
         EL CENTRO NAS IS EL CENTRO NAVAL AIR STATION
N/A    - NOT AVAILABLE




USA.gov is the U.S. government's official web portal to all federal, state and local government web resources and services.